Hourly Data Report for October 04, 2014

All times are specified in Local Standard Time (LST). Add 1 hour to adjust for Daylight Saving Time where and when it is observed.

GJOA HAVEN A
NUNAVUT

68°38'08.000" N
95°51'01.000" W
46.90 m
2302337
71597
YHK

Download Data

Hourly Data (October 2014)
Hourly Data Report for October 4, 2014
Temp Definition
°C
Dew Point Temp Definition
°C
Rel Hum Definition
%
Wind Dir Definition
10's deg

Wind Spd Definition
km/h
Visibility Definition
km
Stn Press Definition
kPa
Hmdx Definition


Wind Chill Definition


Weather Definition


TIME
00:00 Legend Double Dagger -5.9 -6.9 93 34 11 16.1 101.40   -11 LegendNANA
01:00 Legend Double Dagger -5.8 -6.9 92 34 11 16.1 101.37   -11 LegendNANA
02:00 Legend Double Dagger -5.5 -7.2 88 34 9 16.1 101.37   -10 LegendNANA
03:00 Legend Double Dagger -5.3 -7.1 87   0 16.1 101.39     LegendNANA
04:00 Legend Double Dagger -5.3 -6.8 89 LegendMM 4 16.1 101.39   -7 LegendNANA
05:00 Legend Double Dagger -5.5 -6.8 90 30 8 16.1 101.38   -9 LegendNANA
06:00 Legend Double Dagger -5.5 -6.7 91 33 11 16.1 101.38   -10 LegendNANA
07:00 Legend Double Dagger -5.6 -7.0 90 31 8 16.1 101.37   -9 LegendNANA
08:00 Legend Double Dagger -5.7 -6.9 91 32 11 16.1 101.37   -10 LegendNANA
09:00 Legend Double Dagger -5.5 -6.7 91 32 13 16.1 101.38   -11 LegendNANA
10:00 Legend Double Dagger -5.5 -6.7 91 31 11 16.1 101.37   -10 LegendNANA
11:00 Legend Double Dagger -5.7 -6.9 91 32 15 16.1 101.39   -11 LegendNANA
12:00 Legend Double Dagger -5.6 -6.7 92 32 11 16.1 101.39   -10 LegendNANA
13:00 Legend Double Dagger -5.5 -6.6 92 36 11 16.1 101.39   -10 LegendNANA
14:00 Legend Double Dagger -5.4 -6.4 93 35 11 16.1 101.41   -10 LegendNANA
15:00 Legend Double Dagger -5.5 -6.3 94 34 13 12.9 101.45   -11 LegendNANA
16:00 Legend Double Dagger -5.9 -6.7 94 36 15 14.5 101.48   -12 LegendNANA
17:00 Legend Double Dagger -6.0 -6.7 95 36 17 12.9 101.50   -12 LegendNANA
18:00 Legend Double Dagger -6.3 -6.8 96 35 17 11.3 101.52   -13 LegendNANA
19:00 Legend Double Dagger -6.2 -6.6 97 36 17 11.3 101.52   -12 LegendNANA
20:00 Legend Double Dagger -5.9 -6.4 96 1 15 12.9 101.53   -12 LegendNANA
21:00 Legend Double Dagger -4.8 -6.6 87 11 9 16.1 101.54   -9 LegendNANA
22:00 Legend Double Dagger -5.1 -6.9 87 12 11 16.1 101.55   -10 LegendNANA
23:00 Legend Double Dagger -5.2 -6.9 88 7 11 16.1 101.57   -10 LegendNANA

Notes on Data Quality.

Legend

  • E = Estimated
  • M = Missing
  • NA = Not Available
  • ‡ = Partner data that is not subject to review by the National Climate Archives
Date modified: